Location: Unspecified
(0.0000°N, 0.0000°E)
Time: 04:46:27
(UTC+02:00)

Palapa 6 Rocket - Visible Passes

Search period start: 25 October 2014 00:00
Search period end: 03 November 2014 23:00
Orbit: 486 x 1234 km, 22.7° (Epoch: 23 October)

Date Brightness Start Highest point End Pass type
(mag) Time Alt. Az. Time Alt. Az. Time Alt. Az.
25 Oct 5.8 20:21:36 10° NNW 20:26:46 20° NNE 20:31:31 12° ENE visible
25 Oct 5.6 22:09:28 10° NW 22:13:36 30° NNW 22:13:36 30° NNW visible
26 Oct 5.7 19:09:28 10° NNW 19:14:45 21° NNE 19:20:27 10° ENE visible
26 Oct 5.1 20:57:17 10° NW 21:02:39 41° NNW 21:02:39 41° NNW visible
27 Oct 5.5 18:57:22 10° NNW 19:02:43 23° NNE 19:08:37 10° ENE visible
27 Oct 4.6 20:45:09 10° NW 20:51:48 54° N 20:51:48 54° N visible
28 Oct 4.3 20:33:03 10° NW 20:40:25 63° NNE 20:41:01 62° NE visible
28 Oct 6.8 22:22:31 10° W 22:23:07 13° W 22:23:07 13° W visible
29 Oct 6.1 05:51:43 10° S 05:52:08 10° S 05:52:33 10° SSE visible
29 Oct 4.3 20:21:01 10° WNW 20:28:14 71° NNE 20:30:20 51° E visible
29 Oct 6.5 22:10:34 10° W 22:12:25 18° W 22:12:25 18° W visible
30 Oct 6.0 05:37:59 10° SSW 05:40:22 13° SSE 05:42:35 10° SE visible
30 Oct 4.2 20:09:01 10° WNW 20:16:03 80° NNE 20:19:42 36° ESE visible
30 Oct 6.1 21:58:41 10° W 22:01:48 25° WSW 22:01:48 25° WSW visible
31 Oct 5.9 05:25:07 10° SSW 05:28:34 16° SSE 05:31:40 10° SE visible
31 Oct 4.2 19:57:04 10° WNW 20:03:53 90° NNE 20:09:07 23° ESE visible
31 Oct 5.8 21:46:51 10° W 21:51:13 31° WSW 21:51:13 31° WSW visible
01 Nov 5.8 05:12:26 10° SSW 05:16:44 19° SSE 05:20:30 10° ESE visible
01 Nov 4.3 19:45:11 10° WNW 19:51:44 80° SSW 19:58:33 14° ESE visible
01 Nov 5.7 21:35:05 10° W 21:40:40 33° SW 21:40:40 33° SW visible
02 Nov 5.6 04:59:49 10° SW 05:04:52 23° SSE 05:09:11 10° ESE visible
02 Nov 4.4 19:33:20 10° WNW 19:39:36 69° SSW 19:47:12 10° ESE visible
02 Nov 5.7 21:23:24 10° WSW 21:29:35 30° SSW 21:30:05 29° SSW visible
03 Nov 5.5 04:48:49 16° SSW 04:52:57 27° SSE 04:57:46 10° ESE visible
03 Nov 4.6 19:21:33 10° WNW 19:27:31 60° SSW 19:34:48 10° SE visible
03 Nov 5.9 21:11:46 10° WSW 21:17:31 26° SSW 21:19:26 24° S visible
